Tracking 34142 objects as of 17-May-2026
HD Live streaming from Space Station
objects crossing your sky now

COSMOS 1717

Track COSMOS 1717 now!
10-day predictions
COSMOS 1717 is classified as:


NORAD ID: 16450
Int'l Code: 1986-002B
Perigee: 1,482.3 km
Apogee: 1,519.9 km
Inclination: 74.0 °
Period: 115.8 minutes
Semi major axis: 7872 km
RCS: 0.7102 m2 (medium)
Launch date: January 9, 1986
Source: Commonwealth of Independent States (former USSR) (CIS)
Launch site: PLESETSK MISSILE AND SPACE COMPLEX (PKMTR)
Your satellite tracking list
Your tracking list is empty




NASA's NSSDC Master Catalog

Two Line Element Set (TLE):
1 16450U 86002B   26137.51868547 -.00000015  00000-0  25310-5 0  9998
2 16450  73.9886 223.5160 0023914  30.1746 341.6383 12.42992363830985
Source of the keplerian elements: AFSPC